STARLINK-36325

Last updated on Sun Mar 22 2026 00:02:05 GMT+0000 (Coordinated Universal Time)

1 67861U 26034M 26080.48218752 .00161913 00000+0 80674-3 0 9994 2 67861 53.1592 152.1604 0000779 143.8934 216.2142 15.80922494 5804
UTC large
Height (km)
Speed (km/s)
/
Latitude / Longitude
Inclination (degrees)
Orbital Period (minutes)
Azimuth
Elevation
Range (km)
Doppler Factor

Next 0 passes for location: London (51.5072 / 0.1276)

Sorry there are no passes over London.